GSLV R/B (43699 NORAD) Tracking and Keplerian Element Data

This shows tracking and keplerian element data for the satellite.

Feedback or suggestion? Click here.




ElementValue
Catalog43699
NameGSLV R/B
Epoch Orbit54
Epoch Day341.5304487
Epoch Year2018
RAAN158.4968
Inclination21.5176
Eccentricity0.7277763
Argument of Perigee194.6536
Mean Anonmoly119.6444
Mean Motion2.31720251
Decay Rate8.861E-05
L11 43699U 18089B 18341.53044870 .00008861 -85996-6 48727-3 0 9993
L22 43699 21.5176 158.4968 7277763 194.6536 119.6444 2.31720251 540

Live tracking and technical data element details for GSLV R/B (NORAD 43699). GSLV R/B can be tracked NOW for your location showing map with azimuth and elevation plus other details from your city location.

Track the satellite on the map from your city or location and see movement details for azimuth, elevation, latitude, longitude, range, height, and movement on the map or in text.







IsCatalogInMostPopularTable: catalog: 43699, numindb: 27
Update: records affected: 1



GetName: 43699 GSLV R/B

Hit Count: updated at: Tue, 11 Dec 2018 03:29:53 GMT